Pittsburg, KS

9:55 PM CST on February 23, 2018 (GMT -0600)
Atkinson Municipal

Weather History for KPTS - February, 2014

Change the Weather History Date:

Tuesday, February 25, 2014

  Actual Average (KJLN) Record (KJLN)
Temperature  
Mean Temperature 30 °F -  
Max Temperature 37 °F 51 °F 75 °F (1981)
Min Temperature 21 °F 31 °F 0 °F (1965)
Degree Days  
Heating Degree Days 36    
Moisture  
Dew Point 18 °F    
Average Humidity 60    
Maximum Humidity 80    
Minimum Humidity 42    
Precipitation  
Precipitation 0.00 in - - ()
Sea Level Pressure  
Sea Level Pressure 30.27 in    
Wind  
Wind Speed 11 mph (NNE)    
Max Wind Speed 18 mph    
Max Gust Speed 28 mph    
Visibility 10 miles    
Events      
Averages and records for this station are not official NWS values.
T = Trace of Precipitation, MM = Missing Value Source: NWS Daily Summary

Daily Weather History Graph

Daily Weather History Graph

Search for Another Location

Airport or City:

Trip Planner

Search our weather history database for the weather conditions in past years. The results will help you decide how hot, cold, wet, or windy it might be!

Date:

Astronomy

Feb. 25, 2014 Rise Set
Actual Time 6:55 AM CST 6:08 PM CST
Civil Twilight 6:29 AM CST 6:35 PM CST
Nautical Twilight 5:58 AM CST 7:05 PM CST
Astronomical Twilight 5:28 AM CST 7:35 PM CST
Moon 3:47 AM CST (2/25) 2:18 PM CST (2/25)
Length of Visible Light 12h 05m
Length of Day
11h 13m
Waning Crescent, 18% of the Moon is Illuminated
Feb 25
Waning Crescent
Mar 1
New
Mar 8
First Quarter
Mar 16
Full
Mar 23
Last Quarter

Hourly Weather History & Observations

Time (CST) Temp. Windchill Dew Point Humidity Pressure Visibility Wind Dir Wind Speed Gust Speed Precip Events Conditions
12:15 AM 37.2 °F 30.0 °F 16.2 °F 42% 30.19 in 10.0 mi NNE 10.4 mph - N/A   Overcast
12:35 AM 35.6 °F 29.2 °F 16.3 °F 46% 30.20 in 10.0 mi NNE 8.1 mph - N/A   Overcast
12:55 AM 35.6 °F 28.0 °F 17.1 °F 47% 30.20 in 10.0 mi NNE 10.4 mph - N/A   Mostly Cloudy
1:15 AM 34.0 °F 26.0 °F 17.1 °F 50% 30.20 in 10.0 mi NNE 10.4 mph - N/A   Mostly Cloudy
1:30 AM 32.7 °F 25.7 °F 16.7 °F 52% 30.20 in 10.0 mi NE 8.1 mph - N/A   Scattered Clouds
1:55 AM 31.6 °F 26.0 °F 16.7 °F 54% 30.20 in 10.0 mi NNE 5.8 mph - N/A   Clear
2:15 AM 30.7 °F 24.9 °F 16.9 °F 56% 30.21 in 10.0 mi NNE 5.8 mph - N/A   Clear
3:55 AM 30.7 °F 24.9 °F 21.0 °F 67% 30.21 in 10.0 mi NE 5.8 mph - N/A   Clear
4:15 AM 30.7 °F 23.3 °F 21.6 °F 69% 30.20 in 10.0 mi NE 8.1 mph - N/A   Clear
4:35 AM 30.7 °F 20.9 °F 21.7 °F 69% 30.21 in 10.0 mi NNE 12.7 mph 17.3 mph N/A   Clear
4:55 AM 30.2 °F 21.9 °F 21.6 °F 70% 30.22 in 10.0 mi NNE 9.2 mph - N/A   Clear
5:15 AM 28.2 °F 18.3 °F 20.3 °F 72% 30.22 in 10.0 mi NNE 11.5 mph - N/A   Clear
5:35 AM 28.2 °F 18.3 °F 20.8 °F 74% 30.22 in 10.0 mi NNE 11.5 mph 16.1 mph N/A   Clear
5:55 AM 28.2 °F 19.5 °F 21.2 °F 75% 30.23 in 10.0 mi NNE 9.2 mph - N/A   Clear
6:15 AM 28.0 °F 19.3 °F 21.6 °F 77% 30.24 in 10.0 mi NNE 9.2 mph - N/A   Clear
6:35 AM 26.2 °F 18.6 °F 20.1 °F 78% 30.24 in 10.0 mi NNE 6.9 mph - N/A   Clear
6:55 AM 25.7 °F 17.1 °F 20.1 °F 79% 30.24 in 10.0 mi NNE 8.1 mph - N/A   Clear
7:15 AM 25.7 °F 16.4 °F 20.3 °F 80% 30.25 in 10.0 mi NNE 9.2 mph - N/A   Clear
7:35 AM 26.4 °F 17.3 °F 20.7 °F 79% 30.25 in 10.0 mi NNE 9.2 mph - N/A   Clear
7:55 AM 28.0 °F 19.3 °F 21.7 °F 77% 30.25 in 10.0 mi NE 9.2 mph - N/A   Clear
8:15 AM 28.2 °F 18.3 °F 21.4 °F 76% 30.26 in 10.0 mi NE 11.5 mph - N/A   Clear
8:35 AM 29.7 °F 21.3 °F 21.2 °F 71% 30.26 in 10.0 mi NE 9.2 mph - N/A   Clear
8:55 AM 30.7 °F 20.9 °F 20.3 °F 65% 30.27 in 10.0 mi ENE 12.7 mph 16.1 mph N/A   Clear
9:15 AM 30.7 °F 20.4 °F 19.4 °F 63% 30.27 in 10.0 mi NE 13.8 mph 18.4 mph N/A   Clear
9:35 AM 31.5 °F 21.4 °F 19.0 °F 60% 30.27 in 10.0 mi ENE 13.8 mph 20.7 mph N/A   Clear
9:55 AM 33.4 °F 23.1 °F 19.4 °F 56% 30.27 in 10.0 mi NE 16.1 mph - N/A   Clear
10:15 AM 32.9 °F 22.4 °F 18.5 °F 55% 30.28 in 10.0 mi NE 16.1 mph - N/A   Clear
10:35 AM 32.9 °F 24.1 °F 18.7 °F 56% 30.28 in 10.0 mi ENE 11.5 mph 18.4 mph N/A   Clear
10:50 AM 34.0 °F 24.2 °F 19.6 °F 56% 30.28 in 10.0 mi NE 15.0 mph 18.4 mph N/A   Clear
11:20 AM 35.6 °F 26.6 °F 20.1 °F 53% 30.28 in 10.0 mi NE 13.8 mph 17.3 mph N/A   Clear
11:35 AM 34.9 °F 26.6 °F 19.6 °F 54% 30.28 in 10.0 mi NE 11.5 mph 19.6 mph N/A   Clear
11:55 AM 35.1 °F 25.5 °F 19.9 °F 54% 30.29 in 10.0 mi NE 15.0 mph 19.6 mph N/A   Clear
12:15 PM 34.9 °F 26.2 °F 19.6 °F 54% 30.28 in 10.0 mi NNE 12.7 mph 17.3 mph N/A   Clear
12:35 PM 35.4 °F 27.3 °F 20.1 °F 54% 30.28 in 10.0 mi NE 11.5 mph 17.3 mph N/A   Clear
12:55 PM 35.6 °F 27.1 °F 19.9 °F 53% 30.27 in 10.0 mi NNE 12.7 mph - N/A   Clear
1:15 PM 35.6 °F 28.0 °F 19.2 °F 51% 30.27 in 10.0 mi NNE 10.4 mph - N/A   Clear
1:35 PM 35.6 °F 28.0 °F 18.9 °F 51% 30.25 in 10.0 mi NE 10.4 mph 18.4 mph N/A   Clear
1:55 PM 35.6 °F 26.2 °F 18.5 °F 50% 30.24 in 10.0 mi NNE 15.0 mph 19.6 mph N/A   Clear
2:15 PM 35.6 °F 28.0 °F 18.3 °F 50% 30.24 in 10.0 mi NE 10.4 mph 18.4 mph N/A   Clear
2:35 PM 35.6 °F 25.9 °F 17.8 °F 48% 30.23 in 10.0 mi NNE 16.1 mph 20.7 mph N/A   Clear
2:55 PM 35.6 °F 26.2 °F 18.3 °F 50% 30.23 in 10.0 mi NNE 15.0 mph 19.6 mph N/A   Clear
3:15 PM 35.6 °F 26.2 °F 18.3 °F 50% 30.23 in 10.0 mi NE 15.0 mph - N/A   Clear
3:35 PM 35.6 °F 27.1 °F 18.3 °F 50% 30.24 in 10.0 mi North 12.7 mph 23.0 mph N/A   Clear
3:55 PM 35.6 °F 26.2 °F 18.7 °F 50% 30.24 in 10.0 mi NE 15.0 mph 19.6 mph N/A   Scattered Clouds
4:15 PM 35.6 °F 26.6 °F 19.0 °F 51% 30.24 in 10.0 mi NNE 13.8 mph 18.4 mph N/A   Scattered Clouds
4:35 PM 34.5 °F 24.8 °F 18.7 °F 52% 30.24 in 10.0 mi NNE 15.0 mph 19.6 mph N/A   Scattered Clouds
4:55 PM 32.7 °F 22.5 °F 17.8 °F 54% 30.24 in 10.0 mi NNE 15.0 mph 18.4 mph N/A   Scattered Clouds
5:15 PM 32.2 °F 22.3 °F 18.0 °F 56% 30.25 in 10.0 mi NNE 13.8 mph 18.4 mph N/A   Mostly Cloudy
5:35 PM 31.1 °F 21.4 °F 17.2 °F 57% 30.26 in 10.0 mi NE 12.7 mph - N/A   Mostly Cloudy
5:55 PM 30.7 °F 22.6 °F 17.8 °F 59% 30.27 in 10.0 mi NNE 9.2 mph - N/A   Scattered Clouds
6:15 PM 30.7 °F 23.3 °F 18.3 °F 60% 30.27 in 10.0 mi NNE 8.1 mph - N/A   Mostly Cloudy
6:35 PM 30.7 °F 21.4 °F 18.5 °F 60% 30.27 in 10.0 mi NNE 11.5 mph 18.4 mph N/A   Overcast
6:55 PM 29.5 °F 20.4 °F 17.6 °F 61% 30.29 in 10.0 mi NNE 10.4 mph - N/A   Overcast
7:15 PM 28.2 °F 18.9 °F 16.7 °F 62% 30.30 in 10.0 mi North 10.4 mph - N/A   Mostly Cloudy
7:35 PM 28.2 °F 18.9 °F 17.1 °F 63% 30.30 in 10.0 mi NNE 10.4 mph - N/A   Scattered Clouds
7:55 PM 27.5 °F 18.6 °F 16.9 °F 64% 30.31 in 10.0 mi North 9.2 mph - N/A   Clear
8:15 PM 27.0 °F 17.3 °F 16.5 °F 65% 30.33 in 10.0 mi North 10.4 mph - N/A   Clear
8:35 PM 26.8 °F 17.1 °F 16.3 °F 65% 30.33 in 10.0 mi NNE 10.4 mph 17.3 mph N/A   Mostly Cloudy
8:55 PM 27.5 °F 16.3 °F 16.2 °F 62% 30.34 in 10.0 mi NNE 13.8 mph 21.9 mph N/A   Overcast
9:15 PM 26.1 °F 13.6 °F 13.5 °F 59% 30.35 in 10.0 mi NNE 16.1 mph 20.7 mph N/A   Overcast
9:35 PM 25.7 °F 15.7 °F 13.1 °F 59% 30.36 in 10.0 mi North 10.4 mph 23.0 mph N/A   Overcast
9:55 PM 25.7 °F 15.1 °F 12.6 °F 58% 30.35 in 10.0 mi North 11.5 mph 24.2 mph N/A   Overcast
10:15 PM 25.7 °F 13.1 °F 11.8 °F 56% 30.36 in 10.0 mi NNE 16.1 mph 20.7 mph N/A   Overcast
10:35 PM 25.7 °F 14.6 °F 11.5 °F 55% 30.36 in 10.0 mi NNE 12.7 mph 20.7 mph N/A   Overcast
10:55 PM 24.4 °F 12.4 °F 10.9 °F 57% 30.37 in 10.0 mi North 13.8 mph 20.7 mph N/A   Overcast
11:15 PM 23.4 °F 11.6 °F 10.6 °F 58% 30.38 in 10.0 mi North 12.7 mph 24.2 mph N/A   Overcast
11:35 PM 22.5 °F 8.9 °F 10.4 °F 60% 30.39 in 10.0 mi North 16.1 mph 25.3 mph N/A   Overcast
11:55 PM 21.9 °F 7.3 °F 10.2 °F 61% 30.40 in 10.0 mi North 18.4 mph 27.6 mph N/A   Overcast